Stündliche Wetter Warmbad

Heute, 26 Oktober, Montag

Zeit Temperatur Niederschläge Wind Luftdruck Luftfeuchtigkeit
00:00 +20°C° 0 mm 4 m/S 692 mmHg 31%
01:00 +19°C° 0 mm 3 m/S 691 mmHg 35%
02:00 +18°C° 0 mm 2 m/S 691 mmHg 37%
03:00 +18°C° 0 mm 2 m/S 691 mmHg 38%
04:00 +18°C° 0 mm 1 m/S 691 mmHg 40%
05:00 +19°C° 0 mm 1 m/S 692 mmHg 37%
06:00 +21°C° 0 mm 1 m/S 692 mmHg 35%
07:00 +21°C° 0 mm 2 m/S 692 mmHg 33%
08:00 +25°C° 0 mm 2 m/S 692 mmHg 27%
09:00 +28°C° 0 mm 2 m/S 692 mmHg 22%
10:00 +30°C° 0 mm 2 m/S 692 mmHg 16%
11:00 +32°C° 0 mm 2 m/S 691 mmHg 14%
12:00 +35°C° 0 mm 2 m/S 691 mmHg 12%
13:00 +37°C° 0 mm 2 m/S 690 mmHg 10%
14:00 +38°C° 0 mm 3 m/S 690 mmHg 10%
15:00 +38°C° 0 mm 4 m/S 689 mmHg 9%
16:00 +40°C° 0 mm 5 m/S 689 mmHg 9%
17:00 +36°C° 0 mm 5 m/S 689 mmHg 13%
18:00 +33°C° 0 mm 5 m/S 689 mmHg 17%
19:00 +29°C° 0 mm 6 m/S 689 mmHg 20%
20:00 +27°C° 0 mm 5 m/S 689 mmHg 27%
21:00 +25°C° 0 mm 4 m/S 689 mmHg 34%
22:00 +22°C° 0 mm 4 m/S 689 mmHg 41%
23:00 +21°C° 0 mm 4 m/S 689 mmHg 44%

Morgen, 27 Oktober, Dienstag

Zeit Temperatur Niederschläge Wind Luftdruck Luftfeuchtigkeit
00:00 +20°C° 0 mm 3 m/S 689 mmHg 46%
01:00 +19°C° 0 mm 3 m/S 689 mmHg 49%
02:00 +19°C° 0 mm 3 m/S 688 mmHg 51%
03:00 +18°C° 0 mm 3 m/S 688 mmHg 53%
04:00 +18°C° 0 mm 3 m/S 688 mmHg 54%
05:00 +19°C° 0 mm 2 m/S 689 mmHg 49%
06:00 +21°C° 0 mm 2 m/S 689 mmHg 43%
07:00 +24°C° 0 mm 2 m/S 690 mmHg 38%
08:00 +27°C° 0 mm 3 m/S 690 mmHg 29%
09:00 +30°C° 0 mm 4 m/S 691 mmHg 20%
10:00 +35°C° 0 mm 5 m/S 691 mmHg 11%
11:00 +36°C° 0 mm 6 m/S 690 mmHg 10%
12:00 +39°C° 0 mm 7 m/S 690 mmHg 9%
13:00 +40°C° 0 mm 8 m/S 690 mmHg 8%
14:00 +39°C° 0 mm 9 m/S 689 mmHg 9%
15:00 +37°C° 0 mm 10 m/S 688 mmHg 11%
16:00 +36°C° 0 mm 11 m/S 688 mmHg 12%
17:00 +32°C° 0 mm 9 m/S 688 mmHg 16%
18:00 +27°C° 0 mm 8 m/S 688 mmHg 21%
19:00 +23°C° 0 mm 7 m/S 689 mmHg 25%
20:00 +21°C° 0 mm 6 m/S 689 mmHg 28%
21:00 +19°C° 0 mm 5 m/S 689 mmHg 31%
22:00 +16°C° 0 mm 5 m/S 690 mmHg 34%
23:00 +15°C° 0 mm 4 m/S 690 mmHg 38%

übermorgen, 28 Oktober, Mittwoch

Zeit Temperatur Niederschläge Wind Luftdruck Luftfeuchtigkeit
00:00 +14°C° 0 mm 3 m/S 689 mmHg 42%
01:00 +13°C° 0 mm 3 m/S 689 mmHg 46%
02:00 +13°C° 0 mm 3 m/S 689 mmHg 49%
03:00 +13°C° 0 mm 2 m/S 689 mmHg 51%
04:00 +13°C° 0 mm 2 m/S 688 mmHg 53%
05:00 +14°C° 0 mm 2 m/S 689 mmHg 47%
06:00 +16°C° 0 mm 1 m/S 689 mmHg 41%
07:00 +19°C° 0 mm 1 m/S 690 mmHg 36%
08:00 +21°C° 0 mm 2 m/S 690 mmHg 28%
09:00 +26°C° 0 mm 2 m/S 690 mmHg 21%
10:00 +29°C° 0 mm 3 m/S 690 mmHg 14%
11:00 +32°C° 0 mm 5 m/S 690 mmHg 13%
12:00 +34°C° 0 mm 6 m/S 690 mmHg 11%
13:00 +37°C° 0 mm 8 m/S 689 mmHg 9%
14:00 +35°C° 0 mm 9 m/S 689 mmHg 11%
15:00 +33°C° 0 mm 11 m/S 689 mmHg 12%
16:00 +32°C° 0 mm 12 m/S 689 mmHg 14%
17:00 +27°C° 0 mm 11 m/S 689 mmHg 25%
18:00 +21°C° 0 mm 10 m/S 689 mmHg 36%
19:00 +16°C° 0 mm 9 m/S 689 mmHg 48%
20:00 +13°C° 0 mm 9 m/S 690 mmHg 55%
21:00 +12°C° 0 mm 8 m/S 691 mmHg 63%
22:00 +10°C° 0 mm 8 m/S 692 mmHg 70%
23:00 +10°C° 0 mm 7 m/S 692 mmHg 72%

29 Oktober, Donnerstag

Zeit Temperatur Niederschläge Wind Luftdruck Luftfeuchtigkeit
00:00 +9°C° 0 mm 6 m/S 692 mmHg 75%
01:00 +9°C° 0 mm 5 m/S 692 mmHg 77%
02:00 +8°C° 0 mm 5 m/S 692 mmHg 78%
03:00 +8°C° 0 mm 5 m/S 692 mmHg 80%
04:00 +8°C° 0 mm 5 m/S 692 mmHg 81%
05:00 +10°C° 0 mm 4 m/S 693 mmHg 75%
06:00 +10°C° 0 mm 4 m/S 693 mmHg 68%
07:00 +11°C° 0 mm 3 m/S 694 mmHg 62%
08:00 +14°C° 0 mm 3 m/S 694 mmHg 53%
09:00 +17°C° 0 mm 4 m/S 695 mmHg 43%
10:00 +20°C° 0 mm 4 m/S 695 mmHg 34%
11:00 +21°C° 0 mm 4 m/S 695 mmHg 29%
12:00 +23°C° 0 mm 4 m/S 695 mmHg 24%
13:00 +26°C° 0 mm 5 m/S 694 mmHg 19%
14:00 +26°C° 0 mm 5 m/S 694 mmHg 18%
15:00 +26°C° 0 mm 5 m/S 694 mmHg 17%
16:00 +27°C° 0 mm 5 m/S 694 mmHg 16%
17:00 +23°C° 0 mm 5 m/S 694 mmHg 22%
18:00 +21°C° 0 mm 6 m/S 694 mmHg 28%
19:00 +18°C° 0 mm 7 m/S 694 mmHg 34%
20:00 +16°C° 0 mm 6 m/S 695 mmHg 43%
21:00 +15°C° 0 mm 5 m/S 695 mmHg 52%
22:00 +13°C° 0 mm 4 m/S 695 mmHg 61%
23:00 +12°C° 0 mm 3 m/S 695 mmHg 65%

30 Oktober, Freitag

Zeit Temperatur Niederschläge Wind Luftdruck Luftfeuchtigkeit
00:00 +11°C° 0 mm 3 m/S 694 mmHg 70%
01:00 +10°C° 0 mm 3 m/S 694 mmHg 74%
02:00 +10°C° 0 mm 2 m/S 694 mmHg 77%
03:00 +9°C° 0 mm 2 m/S 694 mmHg 79%
04:00 +9°C° 0 mm 1 m/S 694 mmHg 81%
05:00 +11°C° 0 mm 1 m/S 694 mmHg 71%
06:00 +13°C° 0 mm 1 m/S 695 mmHg 60%
07:00 +15°C° 0 mm 2 m/S 695 mmHg 50%
08:00 +19°C° 0 mm 2 m/S 695 mmHg 39%
09:00 +23°C° 0 mm 2 m/S 695 mmHg 29%
10:00 +26°C° 0 mm 3 m/S 695 mmHg 19%
11:00 +28°C° 0 mm 2 m/S 695 mmHg 17%
12:00 +30°C° 0 mm 2 m/S 694 mmHg 15%
13:00 +32°C° 0 mm 2 m/S 694 mmHg 12%
14:00 +33°C° 0 mm 3 m/S 694 mmHg 12%
15:00 +34°C° 0 mm 4 m/S 693 mmHg 12%
16:00 +34°C° 0 mm 5 m/S 693 mmHg 12%
17:00 +32°C° 0 mm 5 m/S 693 mmHg 14%
18:00 +28°C° 0 mm 5 m/S 693 mmHg 16%
19:00 +26°C° 0 mm 6 m/S 693 mmHg 19%
20:00 +23°C° 0 mm 5 m/S 693 mmHg 21%
21:00 +21°C° 0 mm 4 m/S 693 mmHg 24%
22:00 +19°C° 0 mm 3 m/S 694 mmHg 26%
23:00 +17°C° 0 mm 3 m/S 693 mmHg 30%

31 Oktober, Samstag

Zeit Temperatur Niederschläge Wind Luftdruck Luftfeuchtigkeit
00:00 +16°C° 0 mm 2 m/S 693 mmHg 34%
01:00 +15°C° 0 mm 1 m/S 692 mmHg 37%
02:00 +15°C° 0 mm 2 m/S 692 mmHg 38%
03:00 +15°C° 0 mm 2 m/S 692 mmHg 38%
04:00 +13°C° 0 mm 3 m/S 692 mmHg 39%
05:00 +16°C° 0 mm 2 m/S 692 mmHg 35%
06:00 +18°C° 0 mm 2 m/S 693 mmHg 31%
07:00 +20°C° 0 mm 1 m/S 693 mmHg 27%
Mehr zeigen

Wir brauchen deine Erlaubnis

Meteoprog und unser Service Anbieter werden persönliche Daten aufbewahren, so wie Cookies, Geräte Bezeichnung oder ähnliche Technologien von deinem Gerät und Prozess, so wie Persönliche Daten Inhalte und Werbungen, genauso wie social Media und den Verkehr zu analysieren.

  • Aufbewahrung und/oder Zugang zu deiner Geräte Informationen.

    Cookies, Geräte Bezeichnung oder andere Informationen, können aufbewahrt oder Zugang zu deinem Gerät erhalten, für den Grund, der oben angegeben wird.

  • Personalisierte Werbung und Inhalte, Messungen, Einblick in das Publikum und Produkt Entwicklung.

    Werbungen und Inhalte können personalisiert werden, basierend auf ein Profil. Mehr Daten können besser personalisierte Werbungen und Inhalte hinzufügen. Werbung und Inhalte können gezeigt und gemessen werden. Einblicke über das Publikum, welche die Werbung gesehen haben und den Inhalt, können abgeleitet werden. So wie Daten können genutzt werden, um es zu verbessern oder die Benutzer Erfahrung zu verbessern das System und die Software.

Wenn du “Ich stimme zu” klickst, erlaubst du uns, die Cookies zu benutzen die Geräte Bezeichnung, den Web oder ähnliche Technologien zu benutzen. Deine Settings, können in deinem Gerät bei deinem Browser geändert werden.

Für den bestimmten Zweck, berechtigten Interessen beruhen darauf, mehr als auf den Inhalt. Du kannst mehr darüber in unseren Privaten und Cookie Politik lesen.